Regional Weather Roundup
Issued by NWS Burlington, VT

Home | Current Version | Previous Version | Text Only | Print | Product List | Glossary On
Versions: 1 2 3 4 5 6 7 8 9 10 11 12 13 14 15 16 17 18 19 20 21 22 23 24 25 26 27 28 29 30 31 32 33 34 35 36 37 38 39 40 41 42 43 44 45 46 47 48 49 50
544
ASUS41 KBTV 191430
RWRBTV
VERMONT REGIONAL WEATHER ROUNDUP
NATIONAL WEATHER SERVICE BURLINGTON VT
900 AM EST THU JAN 19 2017

NOTE: "FAIR" INDICATES FEW OR NO CLOUDS BELOW 12,000 FEET WITH NO
SIGNIFICANT WEATHER AND/OR OBSTRUCTIONS TO VISIBILITY.

* THESE REPORTS ARE NOT UNDER NWS QUALITY CONTROL AND/OR DO NOT
  REPORT WEATHER SUCH AS PRECIPITATION AND FOG.

VTZ001>019-191500-
_____VERMONT_____


CITY           SKY/WX    TMP DP  RH WIND       PRES   REMARKS
BURLINGTON     PTSUNNY   37  34  89 SW5       30.00R
MONTPELIER     CLOUDY    32  31  96 CALM      29.98R
MORRISVILLE    CLOUDY    32  30  92 VRB3      29.98R FOG
ST. JOHNSBURY*   N/A     31  29  92 MISG      29.95S
LYNDONVILLE*   LGT RAIN  29  29  98 CALM      29.96S
MIDDLEBURY*    CLOUDY    37  35  93 S3        29.99R
RUTLAND*       CLOUDY    36  32  85 CALM      29.98S
SPRINGFIELD    CLOUDY    31  29  92 CALM      29.99R FOG
HIGHGATE*      CLOUDY    34  33  98 CALM      30.00R FOG
NEWPORT*       LGT RAIN  33  32  96 W3        29.96S
BENNINGTON     CLOUDY    36  33  89 CALM      30.00R
SUTTON*          N/A     28 N/A N/A MISG        N/A
ISLAND POND*     N/A     30 N/A N/A CALM        N/A
GALLUP MILLS*    N/A     30 N/A N/A MISG        N/A
UNION VILLAGE*   N/A     32 N/A N/A MISG        N/A
MT. MANSFIELD*   N/A     25 N/A N/A CALM        N/A

_____LAKE CHAMPLAIN_____


CITY           SKY/WX    TMP DP  RH WIND       PRES   REMARKS
BURTON ISLAND*   N/A     34  34 100 SE1         N/A
COLCHESTER RF*   N/A     37  36  93 W5          N/A
DIAMOND ISL*     N/A     37  36  93 S1          N/A

$$

NYZ007-026>031-035-052-083-087-191500-
_____NORTHERN NEW YORK_____


CITY           SKY/WX    TMP DP  RH WIND       PRES   REMARKS
SARANAC LAKE   CLOUDY    32  29  88 W7        29.95R FOG     WCI  26
MASSENA        CLOUDY    35  34  96 SW7       30.03R WCI  29
OGDENSBURG*    CLOUDY    35  35  99 SW3       30.04  FOG
POTSDAM*       LGT RAIN  36  36 100 W8        30.03R WCI  29
WATERTOWN      CLOUDY    34  34 100 SW6       30.06R FOG     WCI  29
FT DRUM        CLOUDY    36  32  87 W3        30.03R
ALBANY         CLOUDY    38  35  89 SW3       30.04R
GLENS FALLS    CLOUDY    36  33  89 S5        30.01R FOG

$$
NHZ002-005-011-191500-
_____NEW HAMPSHIRE_____


CITY           SKY/WX    TMP DP  RH WIND       PRES   REMARKS
LEBANON        CLOUDY    32  29  88 CALM      29.98R
KEENE          CLOUDY    34  34 100 CALM      30.00R
MT WASHINGTON  BLWGSNOW  16  16 100 W54G60      N/A  VSB 1/8 WCI  -9
PLYMOUTH       CLOUDY    32  30  93 CALM      29.96F
WHITEFIELD     CLOUDY    31  27  85 CALM      29.95R

$$

_____REGIONAL QUEBEC LOCATIONS_____


CITY           SKY/WX    TMP DP  RH WIND       PRES   REMARKS
MONTREAL       CLOUDY    34  32  93 W10       29.99R WCI  26
QUEBEC CITY    CLOUDY    25  23  93 SW15      29.92R WCI  12
SHERBROOKE     LGT SNOW  32  32 100 W7        29.93S WCI  26

_____REGIONAL ONTARIO LOCATIONS_____


CITY           SKY/WX    TMP DP  RH WIND       PRES   REMARKS
OTTAWA         CLOUDY    34  32  93 SW7       30.01R WCI  28

______KEY______
VSB  - VISIBILITY IN MILES
WCI  - WIND CHILL INDEX
HX   - HEAT INDEX
$$
NNNN




USA.gov is the U.S. government's official web portal to all federal, state and local government web resources and services.